Total_Precipitation_Accumulation
2.09 2.17 2.24 2.24 2.07 2.19 2.37 2.62 2.50 2.57 2.61 2.38 2.10 1.99 2.09 2.11 2.20 2.20 2.16 2.36 2.28 2.28 2.75 2.88 2.57 2.21 2.01 1.74 1.53 1.29 1.15 1.07 0.95 0.75 0.65 0.70 0.76 0.82 0.76 0.66 0.61 0.58 0.51
2.46 2.41 2.27 2.30 2.18 2.18 2.29 2.51 2.58 2.92 2.91 2.83 2.38 2.19 2.24 2.28 2.28 2.39 2.30 2.54 2.41 2.15 2.40 2.69 2.79 2.64 2.38 2.16 1.89 1.60 1.39 1.28 1.12 0.86 0.74 0.70 0.73 0.81 0.78 0.78 0.73 0.68 0.59
2.63 2.54 2.45 2.27 2.27 2.32 2.49 2.58 2.67 2.94 2.96 2.89 2.72 2.53 2.41 2.17 2.04 2.10 2.11 2.26 2.21 2.11 2.21 2.44 2.73 2.83 2.73 2.58 2.41 2.16 1.81 1.54 1.32 1.07 0.89 0.74 0.66 0.72 0.74 0.78 0.80 0.78 0.67
2.66 2.70 2.50 2.24 2.35 2.33 2.49 2.79 2.90 3.07 3.22 3.23 2.94 2.68 2.53 2.35 2.10 2.04 1.93 1.90 2.11 1.80 2.00 2.27 2.48 2.65 2.95 3.08 3.12 3.02 2.56 2.01 1.58 1.36 1.14 0.93 0.79 0.75 0.70 0.73 0.80 0.77 0.65
2.56 2.67 2.48 2.37 2.44 2.61 2.65 2.49 3.03 3.32 3.37 3.36 2.81 2.69 2.34 2.19 2.04 1.89 1.90 1.75 1.84 1.90 1.93 1.94 2.08 2.25 2.78 3.42 3.75 3.78 3.52 2.82 2.19 1.84 1.61 1.38 1.16 1.00 0.81 0.73 0.73 0.67 0.60
2.44 2.68 2.39 2.36 2.53 2.77 2.83 2.90 3.29 3.37 3.21 3.36 2.85 2.50 2.12 1.78 1.70 1.68 1.55 1.55 1.55 1.53 1.66 1.98 2.27 2.03 2.46 3.04 3.36 3.58 3.85 3.72 3.08 2.36 2.05 1.84 1.66 1.40 1.09 0.91 0.83 0.81 0.72
2.58 2.93 2.60 2.79 2.71 2.75 2.80 2.97 3.21 3.17 2.99 3.34 3.37 2.65 1.88 1.44 1.42 1.31 1.26 1.32 1.29 1.36 1.61 2.09 2.40 2.45 2.21 2.19 2.39 2.77 3.38 3.76 3.57 2.95 2.56 2.33 2.19 1.84 1.45 1.25 1.10 0.97 0.89
2.74 2.72 2.87 2.78 2.81 2.89 2.71 2.80 3.11 2.96 2.60 3.00 3.31 3.24 2.42 1.87 1.44 1.01 1.12 1.18 1.28 1.46 1.50 1.58 2.00 2.46 2.30 2.42 2.15 1.97 2.55 3.26 3.72 3.66 3.27 2.88 2.55 2.17 1.86 1.67 1.41 1.18 1.00
2.80 2.82 2.73 2.63 2.72 2.67 2.59 2.59 2.81 2.91 2.68 2.68 3.08 3.42 2.78 2.11 1.65 1.18 1.07 1.04 1.37 1.69 1.66 1.66 1.81 2.13 2.24 2.50 2.61 2.43 2.18 2.38 3.11 3.97 4.06 3.45 2.79 2.29 2.01 1.92 1.85 1.59 1.36
3.06 2.83 2.66 2.55 2.46 2.37 2.47 2.24 2.51 2.72 2.79 2.46 2.61 2.71 2.56 2.45 2.32 1.68 1.28 1.18 1.47 1.69 1.80 1.78 1.84 2.01 2.14 2.48 2.75 2.57 2.05 1.84 2.18 3.17 3.88 3.82 3.24 2.52 2.12 2.15 2.45 2.33 1.89
3.12 2.79 2.70 2.62 2.52 2.38 2.30 2.26 2.44 2.36 2.40 2.38 2.43 2.46 2.48 2.47 2.33 2.10 1.71 1.55 1.51 1.30 1.34 1.50 1.74 1.98 2.07 2.28 2.61 2.47 2.22 2.11 2.04 2.15 2.52 2.90 3.09 2.83 2.54 2.55 2.97 3.23 2.97
2.72 2.53 2.46 2.41 2.30 2.30 2.30 2.27 2.26 2.22 2.26 2.34 2.32 2.31 2.41 2.43 2.38 2.42 2.09 1.82 1.66 1.40 1.36 1.44 1.58 1.75 1.84 1.92 1.96 2.11 2.06 2.02 1.89 1.79 1.79 1.92 2.19 2.50 2.72 2.95 3.36 3.72 3.85
1.98 1.97 2.06 2.09 2.04 2.07 2.09 2.21 2.11 2.03 2.12 2.25 2.21 2.22 2.31 2.32 2.38 2.47 2.36 1.95 1.81 1.62 1.68 1.58 1.48 1.64 1.68 1.85 2.01 1.97 1.71 1.70 1.55 1.48 1.47 1.51 1.68 1.92 2.11 2.33 2.79 3.30 3.71
1.73 1.80 1.89 1.87 1.83 1.86 1.82 2.04 1.91 1.85 1.93 1.98 1.90 2.22 2.23 2.00 2.20 2.34 2.41 2.40 2.19 2.02 2.08 1.87 1.62 1.59 1.71 1.86 1.97 1.92 1.64 1.51 1.30 1.20 1.20 1.22 1.27 1.42 1.61 1.84 2.09 2.36 2.67
1.74 1.80 1.78 1.84 1.83 1.87 1.92 2.02 1.88 1.82 1.99 1.93 1.90 2.11 2.07 1.96 2.05 2.16 2.37 2.53 2.61 2.40 2.26 2.12 1.82 1.66 1.70 1.76 1.97 1.81 1.82 1.66 1.35 1.23 1.16 1.12 1.10 1.17 1.31 1.51 1.68 1.83 2.05
1.80 1.83 1.83 1.91 1.84 1.79 1.81 1.86 1.67 1.69 1.89 1.94 2.01 2.19 2.15 2.06 2.12 2.17 2.32 2.58 2.81 2.79 2.43 2.00 1.83 1.77 1.88 1.81 2.01 1.78 1.72 1.75 1.48 1.25 1.14 1.14 1.12 1.13 1.19 1.34 1.50 1.64 1.77
1.81 1.76 1.72 1.75 1.74 1.70 1.74 1.77 1.61 1.73 1.85 1.90 1.91 2.05 2.11 2.22 2.26 2.27 2.40 2.52 2.75 2.98 2.69 2.18 2.06 2.07 2.19 2.17 2.06 1.83 1.62 1.54 1.38 1.32 1.16 1.09 1.09 1.12 1.18 1.24 1.37 1.50 1.58
1.80 1.80 1.78 1.77 1.66 1.68 1.85 1.89 1.79 1.86 1.93 1.90 1.94 2.07 1.99 2.15 2.31 2.29 2.40 2.41 2.51 2.82 2.73 2.47 2.41 2.36 2.34 2.25 2.24 2.06 1.73 1.57 1.50 1.46 1.24 1.12 1.11 1.10 1.13 1.16 1.26 1.42 1.54
1.84 1.92 1.94 1.95 1.92 1.94 1.95 2.00 2.09 2.07 1.99 1.90 1.96 1.96 1.93 2.11 2.14 2.25 2.38 2.34 2.32 2.48 2.65 2.59 2.55 2.62 2.59 2.47 2.38 2.19 2.00 1.93 1.63 1.55 1.46 1.35 1.32 1.29 1.28 1.27 1.27 1.34 1.45
1.90 2.01 2.01 2.13 2.28 2.33 2.32 2.26 2.17 2.12 2.06 2.00 1.97 1.92 1.89 1.93 1.98 2.06 2.18 2.27 2.34 2.46 2.59 2.62 2.66 2.79 2.76 2.80 2.75 2.53 2.40 2.31 1.99 1.62 1.62 1.52 1.45 1.36 1.27 1.20 1.18 1.24 1.35
1.79 2.08 2.21 2.28 2.53 2.67 2.50 2.50 2.43 2.33 2.32 2.15 2.02 1.93 1.80 1.81 1.87 1.91 1.88 1.99 2.13 2.27 2.30 2.39 2.47 2.68 2.75 2.85 2.84 2.69 2.57 2.54 2.35 1.92 1.75 1.62 1.55 1.43 1.39 1.36 1.27 1.22 1.26
1.69 1.86 2.00 2.11 2.16 2.02 2.16 2.18 2.16 2.20 2.23 2.13 2.06 1.98 1.83 1.74 1.72 1.68 1.58 1.60 1.68 1.79 1.98 2.21 2.29 2.48 2.67 2.82 3.02 3.08 2.92 2.73 2.58 2.29 2.16 2.02 1.77 1.68 1.50 1.36 1.34 1.16 1.06
1.65 1.73 1.76 1.83 1.80 1.87 1.89 1.68 1.61 1.59 1.76 1.87 1.94 1.92 1.70 1.55 1.63 1.55 1.58 1.54 1.54 1.65 1.75 1.97 2.15 2.25 2.47 2.67 2.91 3.06 3.05 2.93 2.74 2.57 2.44 2.31 1.98 1.78 1.58 1.45 1.37 1.12 0.98
1.69 1.67 1.70 1.75 1.83 1.84 1.75 1.52 1.49 1.45 1.58 1.70 1.77 1.80 1.77 1.70 1.69 1.72 1.64 1.52 1.44 1.51 1.61 1.58 1.63 1.79 2.05 2.41 2.59 2.64 2.79 2.81 2.67 2.50 2.42 2.40 2.14 1.93 1.71 1.58 1.51 1.22 1.05
1.89 1.85 1.91 1.93 1.92 1.87 1.74 1.53 1.51 1.46 1.58 1.62 1.63 1.64 1.65 1.61 1.69 1.57 1.46 1.44 1.43 1.46 1.45 1.42 1.38 1.42 1.56 1.78 2.12 2.28 2.38 2.35 2.24 2.00 1.88 1.96 1.94 1.90 1.82 1.70 1.52 1.37 1.17
2.30 2.34 2.23 2.08 1.96 1.86 1.83 1.54 1.43 1.39 1.48 1.56 1.64 1.60 1.54 1.41 1.39 1.33 1.31 1.43 1.40 1.39 1.43 1.37 1.27 1.21 1.16 1.31 1.63 1.81 1.90 1.94 1.84 1.78 1.52 1.50 1.54 1.59 1.71 1.58 1.42 1.35 1.27